"Pseudo-MPEC" for 6J24B21

Created 2026 Sep 4 0:35:03 UT using Find_Orb

Click here for an explanation of pseudo-MPECs

 
 Astrometry: 
     6J24B21*KC2026 09 03.18410 22 42 35.66 -09 03 03.8    ~936K 19.4 GVNEOCPW94
     6J24B21 KC2026 09 03.19032 22 42 36.09 -09 03 23.2    ~936K 19.5 GVNEOCPW94
     6J24B21 KC2026 09 03.19653 22 42 36.56 -09 03 42.8    ~936K 19.4 GVNEOCPW94
     6J24B21 4C2026 09 03.26784 22 42 41.51 -09 07 26.1    ~937Z 20.4 VqNEOCPW97
     6J24B21 4C2026 09 03.27360 22 42 41.85 -09 07 44.6    ~937Z 19.9 VqNEOCPW97
     6J24B21 4C2026 09 03.27934 22 42 42.31 -09 08 02.5    ~937Z 19.7 VqNEOCPW97
     6J24B21  C2026 09 03.35395722 42 48.533-09 12 19.19   ~939K 19.9 GWNEOCPH01
     6J24B21  C2026 09 03.36088522 42 49.031-09 12 41.03   ~939K 20.3 GWNEOCPH01
     6J24B21  C2026 09 03.36951722 42 49.645-09 13 07.98   ~939K 19.8 GWNEOCPH01
     6J24B21  C2026 09 03.37527022 42 50.055-09 13 25.98   ~939K 20.2 GWNEOCPH01

Station data:
(H01) Magdalena Ridge Observatory, Socorro  (N33.984833 W107.189333)  US/New
   Mexico.  Observers W. H. Ryan, E. V. Ryan. Measurer W. H. Ryan. 2.4-m
   f/8.9 reflector + CCD.
(W94) AMACS1, San Pedro de Atacama  (S22.953074 W68.179810)  Chile.  Observers
   A. Maury, G. Attard. Measurers A. Maury, G. Attard, D. Parrott. 0.28-m
   f/2.2 Schmidt + CCD.
(W97) Atacama Desert Observatory, San Pedro de Atacama  (S22.953413
   W68.179760)  Chile.

Orbital elements:  6J24B21
   Perihelion 2026 Jul 26.424191 +/- 37 TT = 10:10:50.1 (JD 2461247.924191)
Epoch 2026 Sep  3.0 TT = JDT 2461286.5   Earth MOID: 0.3194   Ma: 0.0064
M   7.941489581 +/- 6               (J2000 ecliptic)             AutoNEOCP
n   0.205867091 +/- 0.0646          Peri.  149.716376 +/- 32
a   2.840608811 +/- 0.595           Node   159.305632 +/- 0.012
e   0.54244833 +/- 0.111            Incl.   19.319626 +/- 1.0
P   4.78759                H 21.39  G  0.15   U 10.9  SR
q 1.299725301 +/- 0.0912    Q 4.381492321 +/- 2.08
From 10 observations 2026 Sept. 3 (4.6 hr); mean residual 0".26
Residuals in arcseconds: 
260903 W94  .03-  .12-    260903 W97  .87-  .12-    260903 H01  .13+  .04-    
260903 W94  .05-  .04+    260903 W97  .08-  .07-    260903 H01  .14+  .07-    
260903 W94  .53+  .03-    260903 H01  .00   .12+    
260903 W97  .12+  .35+    260903 H01  .11+  .06-    

Ephemerides (geocentric):
Date (UTC) HH   RA             Dec           delta  r     elong  mag " sig PA
---- --------  ------------   ------------  ------ ------ -----  --- --------
2026 09 04 01  22 43 42.915   -09 47 41.52  .36283 1.3711 177.1 20.1 24.3  16
2026 09 04 02  22 43 46.161   -09 49 50.00  .36300 1.3712 177.0 20.1 27.0  17
2026 09 04 03  22 43 49.405   -09 51 58.35  .36317 1.3714 176.9 20.1 29.7  17
2026 09 04 04  22 43 52.647   -09 54 06.57  .36334 1.3715 176.9 20.1 32.6  17
2026 09 04 05  22 43 55.887   -09 56 14.66  .36350 1.3716 176.8 20.1 35.7  17
2026 09 04 06  22 43 59.124   -09 58 22.63  .36367 1.3718 176.8 20.1 38.8  18
2026 09 04 07  22 44 02.360   -10 00 30.46  .36384 1.3719 176.7 20.1 42.1  18
2026 09 04 08  22 44 05.594   -10 02 38.17  .36401 1.3721 176.7 20.2 45.6  18
2026 09 04 09  22 44 08.826   -10 04 45.75  .36418 1.3722 176.6 20.2 49.2  18
2026 09 04 10  22 44 12.055   -10 06 53.21  .36435 1.3724 176.6 20.2 52.9  18
2026 09 04 11  22 44 15.283   -10 09 00.53  .36452 1.3725 176.5 20.2 56.7  18
2026 09 04 12  22 44 18.509   -10 11 07.72  .36469 1.3727 176.4 20.2 60.7  18
2026 09 04 13  22 44 21.732   -10 13 14.79  .36487 1.3728 176.4 20.2 64.8  19
2026 09 04 14  22 44 24.954   -10 15 21.72  .36504 1.3729 176.3 20.2 69.1  19
2026 09 04 15  22 44 28.174   -10 17 28.52  .36521 1.3731 176.3 20.2 73.5  19
2026 09 04 16  22 44 31.391   -10 19 35.20  .36538 1.3732 176.2 20.2 78.0  19
2026 09 04 17  22 44 34.607   -10 21 41.74  .36555 1.3734 176.2 20.2 82.6  19
2026 09 04 18  22 44 37.820   -10 23 48.15  .36573 1.3735 176.1 20.2 87.4  19
2026 09 04 19  22 44 41.032   -10 25 54.44  .36590 1.3737 176.1 20.2 92.4  19
2026 09 04 20  22 44 44.241   -10 28 00.59  .36608 1.3738 176.0 20.2 97.4  19
2026 09 04 21  22 44 47.449   -10 30 06.61  .36625 1.3740 175.9 20.2  103  19
2026 09 04 22  22 44 50.654   -10 32 12.49  .36643 1.3741 175.9 20.2  108  19
2026 09 04 23  22 44 53.858   -10 34 18.25  .36660 1.3743 175.8 20.2  113  19
2026 09 05 00  22 44 57.060   -10 36 23.87  .36678 1.3744 175.8 20.2  119  19
2026 09 05 01  22 45 00.259   -10 38 29.36  .36695 1.3746 175.7 20.2  125  19
2026 09 05 02  22 45 03.457   -10 40 34.72  .36713 1.3747 175.7 20.2  131  19
2026 09 05 03  22 45 06.652   -10 42 39.94  .36731 1.3748 175.6 20.2  137  19
2026 09 05 04  22 45 09.846   -10 44 45.04  .36748 1.3750 175.6 20.2  143  19
2026 09 05 05  22 45 13.037   -10 46 50.00  .36766 1.3751 175.5 20.2  149  19
2026 09 05 06  22 45 16.227   -10 48 54.82  .36784 1.3753 175.5 20.2  155  19
2026 09 05 07  22 45 19.415   -10 50 59.51  .36802 1.3754 175.4 20.2  162  20
2026 09 05 08  22 45 22.600   -10 53 04.07  .36820 1.3756 175.3 20.2  169  20
2026 09 05 09  22 45 25.784   -10 55 08.49  .36838 1.3757 175.3 20.2  175  20
2026 09 05 10  22 45 28.966   -10 57 12.78  .36856 1.3759 175.2 20.3  182  20
2026 09 05 11  22 45 32.146   -10 59 16.93  .36874 1.3760 175.2 20.3  189  20
2026 09 05 12  22 45 35.324   -11 01 20.95  .36892 1.3762 175.1 20.3  196  20
2026 09 05 13  22 45 38.499   -11 03 24.83  .36910 1.3763 175.1 20.3  204  20
2026 09 05 14  22 45 41.673   -11 05 28.58  .36928 1.3765 175.0 20.3  211  20
2026 09 05 15  22 45 44.845   -11 07 32.19  .36946 1.3766 175.0 20.3  219  20
2026 09 05 16  22 45 48.015   -11 09 35.67  .36964 1.3768 174.9 20.3  227  20
2026 09 05 17  22 45 51.184   -11 11 39.01  .36982 1.3769 174.8 20.3  234  20
2026 09 05 18  22 45 54.350   -11 13 42.22  .37001 1.3771 174.8 20.3  242  20
2026 09 05 19  22 45 57.514   -11 15 45.28  .37019 1.3772 174.7 20.3  250  20
2026 09 05 20  22 46 00.676   -11 17 48.21  .37037 1.3774 174.7 20.3  259  20
2026 09 05 21  22 46 03.837   -11 19 51.01  .37056 1.3775 174.6 20.3  267  20
2026 09 05 22  22 46 06.995   -11 21 53.67  .37074 1.3777 174.6 20.3  276  20
2026 09 05 23  22 46 10.152   -11 23 56.19  .37093 1.3778 174.5 20.3  284  20
2026 09 06 00  22 46 13.306   -11 25 58.57  .37111 1.3780 174.5 20.3  293  20